Location: Unspecified
(0.0000°N, 0.0000°E)
Time: 17:56:06
(UTC+00:00)

STARLINK 1012 - Pass Details

Date: 17 January 2020
Orbit: 348 x 352 km, 53.0° (Epoch: 18 January)

Event Time Altitude Azimuth Distance (km) Brightness Sun altitude
Rises 05:22:01 0° 211° (SSW) 2,146 6.6 -11.2°
Reaches altitude 10° 05:24:02 10° 208° (SSW) 1,302 5.5 -10.7°
Maximum altitude 05:26:54 69° 125° (SE) 373 3.0 -10.0°
Drops below altitude 10° 05:29:46 10° 40° (NE) 1,294 5.8 -9.4°
Sets 05:31:46 0° 37° (NE) 2,131 6.9 -8.9°
